Location: *
(34.0423°N, 106.8971°W)
Time: 10:46:42
(UTC+00:00)

Daily predictions for brighter satellites

Satellite Brightness Start Highest point End
(mag) Time Altitude Azimuth Time Altitude Azimuth Time Altitude Azimuth
H-2A R/B 3.0 12:02:57 10° N 12:07:36 31° WNW 12:12:18 10° SW
Cosmos 1238 Rocket 3.7 12:03:38 10° S 12:09:08 83° W 12:14:54 10° N
Delta 2 Rocket 3.2 12:07:00 12° WSW 12:09:51 52° SSE 12:12:59 10° E
Cosmos 2322 3.7 12:05:14 10° NNW 12:10:52 68° WSW 12:16:30 10° S
Cosmos 841 Rocket 3.7 12:06:42 10° NNW 12:11:34 45° WSW 12:16:25 10° S
ARIANE 5 R/B 3.6 12:08:05 10° NNE 12:13:01 50° E 12:17:53 10° S
COSMO-SKYMED 1 3.1 12:15:29 10° SSE 12:19:46 64° ENE 12:24:04 10° N
Cosmos 1939 Rocket 3.8 12:18:03 10° NNW 12:21:29 28° WNW 12:24:53 10° SW
ATLAS CENTAUR R/B 1.4 12:17:34 10° NW 12:21:41 62° WSW 12:25:53 10° SSE
Exosat Rocket 3.8 12:15:26 10° SSW 12:21:55 85° WNW 12:27:04 10° NNE
SJ 16-02 2.2 12:18:18 10° SW 12:22:04 29° WNW 12:25:53 10° N
Cosmos 2100 Rocket 4.1 12:16:03 10° N 12:22:17 89° ENE 12:28:27 10° S
